Flag for United Kingdom Weather past 2 weeks in Coventry, England, United Kingdom

Now
59 °F

Scattered clouds.


Feels Like: 57 °F
Forecast: 45 / 64 °F
Wind: 10 mph from North

Location: Coventry Airport

Current Time: Sep 5, 2015 at 3:35:22 PM

Latest Report: Sep 5, 2015 at 2:50 PM


Visibility: N/A

Pressure: 30.24 "Hg

Humidity: 55%

Dew point: 43 °F

Location of CoventryLocation

Historic Weather in Coventry — Graph

°F

Coventry temperature yesterday

Maximum temperature yesterday: 61 °F (at 1:20 PM)
Minimum temperature yesterday: 50 °F (at 11:20 PM)
Average temperature yesterday: 56 °F

Past Weeks' High & Low Weather Summary

 TemperatureHumidityPressure
High84 °F (Aug 22, 3:50 PM)100% (Aug 24, 7:20 AM)30.24 "Hg (Aug 24, 7:20 AM)
Low48 °F (Aug 28, 6:50 AM)40% (Aug 22, 5:50 PM)29.50 "Hg (Aug 23, 11:50 AM)
Average61 °F78%29.88 "Hg
* Reported Aug 21 2:20 PM — Sep 5 2:20 PM, Coventry, Weather by CustomWeather, © 2015

Note: Actual official high and low records may vary slightly from our data, if they occured in-between our weather recording intervals... More about our weather records

Advertising

Coventry weather history for previous 24 hours

 ConditionsComfort  
Time TempWeatherWind HumidityBarometerVisibility
2:20 PM
Sat, Sep 5
59 °FScattered clouds.10 mph59%30.24 "HgN/A
1:50 PM59 °FScattered clouds.9 mph59%30.21 "HgN/A
1:20 PM59 °FScattered clouds.10 mph63%30.21 "HgN/A
12:50 PM57 °FScattered clouds.8 mph67%30.21 "HgN/A
12:20 PM57 °FScattered clouds.10 mph72%30.21 "HgN/A
11:50 AM55 °FPartly sunny.12 mph72%30.21 "HgN/A
11:20 AM54 °FPartly sunny.14 mph77%30.18 "HgN/A
10:50 AM55 °FPartly sunny.13 mph77%30.18 "HgN/A
10:20 AM55 °FBroken clouds.15 mph77%30.18 "HgN/A
9:50 AM54 °FBroken clouds.13 mph82%30.15 "HgN/A
9:20 AM54 °FScattered clouds.14 mph82%30.15 "HgN/A
8:50 AM54 °FScattered clouds.9 mph88%30.12 "HgN/A
8:20 AM52 °FBroken clouds.10 mph94%30.12 "HgN/A
1:50 AM54 °FPassing clouds.7 mph94%30.07 "Hg1 mi
1:20 AM52 °FPassing clouds.6 mph94%30.07 "Hg4 mi
12:50 AM52 °FPassing clouds.6 mph88%30.07 "HgN/A
12:20 AM50 °FPassing clouds.5 mph94%30.07 "HgN/A
11:50 PM
Fri, Sep 4
50 °FPassing clouds.6 mph88%30.07 "HgN/A
11:20 PM50 °FClear.6 mph88%30.07 "Hg10 mi
10:20 PM52 °FClear.3 mph82%30.09 "Hg10 mi
9:50 PM54 °FClear.6 mph82%30.07 "Hg10 mi
9:20 PM54 °FClear.6 mph77%30.09 "Hg10 mi
8:50 PM55 °FClear.8 mph72%30.07 "Hg10 mi
8:20 PM57 °FPassing clouds.10 mph67%30.07 "HgN/A
7:50 PM59 °FPassing clouds.8 mph68%30.07 "HgN/A
7:20 PM59 °FScattered clouds.10 mph68%30.07 "HgN/A
6:50 PM59 °FScattered clouds.6 mph59%30.07 "HgN/A
6:20 PM61 °FScattered clouds.10 mph55%30.07 "HgN/A
5:50 PM61 °FScattered clouds.10 mph55%30.07 "HgN/A
5:20 PM61 °FScattered clouds.10 mph55%30.07 "HgN/A
4:50 PM59 °FScattered clouds.8 mph59%30.07 "HgN/A
4:20 PM59 °FScattered clouds.10 mph59%30.07 "HgN/A
3:50 PM61 °FScattered clouds.9 mph59%30.07 "HgN/A
3:20 PM59 °FScattered clouds.10 mph59%30.07 "HgN/A
Weather by CustomWeather, © 2015

See weather overviewHow to use our weather pages